This demonstration page uses our WeatherBlox Daily Observations layout. Learn more.

Left ArrowRight Arrow

40.92945, -100.16068

Hourly Observations for September 30, 2020

Temp ( °F °C ) Dew Point ( °F °C ) Humidity (%) Winds ( mph kmh ) Pressure ( in mb ) Visibility ( mi km ) Precip ( " mm )
12:15 am 00:15 Clear 48 9.1 41 5.2 77 77 WNW 5 7 29.93 1014 10 16 N/A
12:35 am 00:35 Clear 48 9 41 4.9 76 76 WNW 3 6 29.93 1014 10 16 N/A
12:55 am 00:55 Clear 47 8.1 41 4.8 80 80 NW 5 7 29.95 1014 10 16 N/A
1:15 am 01:15 Clear 46 8 40 4.4 78 78 WNW 6 9 29.94 1014 10 16 N/A
1:35 am 01:35 Clear 47 8.3 40 4.5 77 77 WNW 6 9 29.94 1014 10 16 N/A
1:55 am 01:55 Clear 46 7.9 40 4.3 78 78 NW 6 9 29.94 1014 10 16 N/A
2:15 am 02:15 Clear 49 9.2 40 4.5 73 73 NW 10 17 29.94 1014 10 16 N/A
2:35 am 02:35 Clear 48 8.7 40 4.2 74 74 NW 10 17 29.94 1014 10 16 N/A
2:55 am 02:55 Clear 49 9.4 40 4.2 70 70 NW 8 13 29.95 1014 10 16 N/A
3:15 am 03:15 Clear 46 7.6 39 4.1 79 79 W 9 15 29.96 1015 10 16 N/A
3:35 am 03:35 Clear 47 8.5 39 4 74 74 WNW 9 15 29.96 1014 10 16 N/A
3:55 am 03:55 Clear 47 8.5 39 4 74 74 WNW 7 11 29.95 1014 10 16 N/A
4:15 am 04:15 Clear 46 7.8 39 3.9 77 77 W 6 9 29.95 1014 10 16 N/A
4:35 am 04:35 Clear 45 7.4 39 4 79 79 W 8 13 29.96 1014 10 16 N/A
4:55 am 04:55 Clear 48 9.1 39 4 71 71 WNW 10 17 29.95 1014 10 16 N/A
5:15 am 05:15 Clear 49 9.2 39 4.1 71 71 WNW 12 19 29.96 1015 10 16 N/A
5:35 am 05:35 Clear 51 10.4 39 3.8 64 64 WNW 15 24 29.96 1014 10 16 N/A
5:55 am 05:55 Clear 51 10.3 39 3.7 64 64 WNW 15 24 29.97 1015 10 16 N/A
6:15 am 06:15 Clear 50 9.9 38 3.6 65 65 WNW 14 22 29.99 1016 10 16 N/A
6:35 am 06:35 Clear 49 9.7 39 3.7 67 67 WNW 10 17 29.99 1016 10 16 N/A
6:55 am 06:55 Clear 49 9.2 39 3.8 69 69 WNW 12 19 30.02 1017 10 16 N/A
7:15 am 07:15 Clear 49 9.5 39 3.7 67 67 NW 9 15 30.04 1017 10 16 N/A
7:35 am 07:35 Clear 47 8.6 38 3.6 71 71 NW 9 15 30.05 1018 10 16 N/A
7:55 am 07:55 Sunny 47 8.5 39 3.9 73 73 WNW 5 7 30.08 1018 10 16 N/A
8:15 am 08:15 Sunny 49 9.3 40 4.4 72 72 WNW 7 11 30.09 1019 10 16 N/A
8:35 am 08:35 Sunny 58 14.6 42 5.4 54 54 NNW 12 19 30.05 1018 10 16 N/A
8:55 am 08:55 Sunny 60 15.7 41 5.2 50 50 N 14 22 30.05 1018 10 16 N/A
9:15 am 09:15 Sunny 61 16.3 42 5.3 48 48 N 15 24 30.06 1018 10 16 N/A
9:35 am 09:35 Sunny 62 16.5 42 5.5 48 48 N 17 28 30.08 1019 10 16 N/A
9:55 am 09:55 Sunny 62 16.9 40 4.3 43 43 N 18 30 30.09 1019 10 16 N/A
10:15 am 10:15 Sunny 63 17.2 37 2.8 38 38 N 22 35 30.11 1020 10 16 N/A
10:35 am 10:35 Sunny 64 17.6 36 2.4 36 36 NNW 22 35 30.11 1020 10 16 N/A
10:55 am 10:55 Sunny 64 17.7 36 2.1 35 35 N 23 37 30.11 1020 10 16 N/A
11:15 am 11:15 Sunny 65 18.4 35 1.4 32 32 NNW 21 33 30.12 1020 10 16 N/A
11:35 am 11:35 Sunny 65 18.6 33 0.4 30 30 NNW 21 33 30.12 1020 10 16 N/A
11:55 am 11:55 Sunny 66 19 29 -1.9 24 24 NNW 22 35 30.12 1020 10 16 N/A
12:15 pm 12:15 Sunny 66 19.1 29 -1.9 24 24 NNW 25 41 30.13 1020 10 16 N/A
12:35 pm 12:35 Sunny 67 19.4 30 -1.2 25 25 NNW 18 30 30.13 1020 10 16 N/A
12:55 pm 12:55 Sunny 67 19.5 29 -1.6 24 24 NNW 18 30 30.12 1020 10 16 N/A
1:15 pm 13:15 Sunny 67 19.7 27 -2.9 22 22 NNW 21 33 30.12 1020 10 16 N/A
1:35 pm 13:35 Sunny 67 19.7 28 -2.5 22 22 NNW 21 33 30.12 1020 10 16 N/A
1:55 pm 13:55 Sunny 69 20.3 27 -2.8 21 21 NNW 21 33 30.11 1020 10 16 N/A
2:15 pm 14:15 Sunny 69 20.3 28 -2.4 22 22 NNW 17 28 30.11 1020 10 16 N/A
2:35 pm 14:35 Sunny 69 20.7 26 -3.4 20 20 NW 24 39 30.10 1019 10 16 N/A
2:55 pm 14:55 Sunny 69 20.4 25 -3.9 19 19 NNW 21 33 30.10 1019 10 16 N/A
3:15 pm 15:15 Sunny 69 20.6 23 -4.8 18 18 NNW 18 30 30.10 1019 10 16 N/A
3:35 pm 15:35 Sunny 68 20 23 -4.8 18 18 NNW 20 31 30.10 1019 10 16 N/A
3:55 pm 15:55 Sunny 69 20.5 23 -5.2 17 17 NNW 22 35 30.10 1019 10 16 N/A
4:15 pm 16:15 Sunny 68 20 22 -5.3 18 18 NNW 21 33 30.09 1019 10 16 N/A
4:35 pm 16:35 Sunny 69 20.4 23 -5 18 18 NNW 17 28 30.09 1019 10 16 N/A
4:55 pm 16:55 Sunny 67 19.3 21 -6 18 18 NNW 17 28 30.11 1020 10 16 N/A
5:15 pm 17:15 Sunny 68 20.1 22 -5.8 17 17 N 18 30 30.10 1019 10 16 N/A
5:35 pm 17:35 Sunny 67 19.4 21 -5.9 18 18 NNW 17 28 30.11 1020 10 16 N/A
5:55 pm 17:55 Sunny 65 18.6 22 -5.5 19 19 NNW 16 26 30.12 1020 10 16 N/A
6:15 pm 18:15 Sunny 65 18.5 22 -5.3 19 19 NNW 14 22 30.12 1020 10 16 N/A
6:35 pm 18:35 Sunny 64 17.8 23 -5.2 21 21 NNW 17 28 30.13 1020 10 16 N/A
6:55 pm 18:55 Sunny 62 16.5 24 -4.7 23 23 N 13 20 30.15 1021 10 16 N/A
7:15 pm 19:15 Sunny 61 16.2 23 -5 23 23 NNW 10 17 30.15 1021 10 16 N/A
7:35 pm 19:35 Mostly Cloudy 59 15 24 -4.5 26 26 NNW 6 9 30.17 1022 10 16 N/A
7:55 pm 19:55 Mostly Cloudy 55 12.8 26 -3.3 33 33 NW 6 9 30.19 1022 10 16 N/A
8:15 pm 20:15 Partly Cloudy 53 11.8 27 -3 36 36 WNW 6 9 30.20 1023 10 16 N/A
8:35 pm 20:35 Clear 50 9.9 28 -2.3 43 43 W 7 11 30.22 1023 7 11 N/A
8:55 pm 20:55 Mostly Cloudy 52 11.2 28 -2.1 40 40 WNW 5 7 30.22 1023 10 16 N/A
9:15 pm 21:15 Partly Cloudy 49 9.7 28 -2.3 43 43 W 5 7 30.23 1024 10 16 N/A
9:35 pm 21:35 Clear 47 8.6 30 -1.3 50 50 W 3 6 30.24 1024 10 16 N/A
9:55 pm 21:55 Clear 46 7.8 29 -1.6 52 52 W 5 7 30.26 1025 10 16 N/A
10:15 pm 22:15 Clear 45 7 28 -2.1 53 53 WNW 6 9 30.27 1025 10 16 N/A
10:35 pm 22:35 Partly Cloudy 49 9.5 28 -2.2 44 44 WNW 7 11 30.26 1025 10 16 N/A
10:55 pm 22:55 Mostly Cloudy 49 9.3 29 -1.9 46 46 W 9 15 30.27 1025 10 16 N/A
11:15 pm 23:15 Cloudy 50 10 29 -1.6 45 45 W 8 13 30.26 1025 10 16 N/A
11:35 pm 23:35 Mostly Cloudy 51 10.5 28 -2 42 42 W 9 15 30.26 1025 10 16 N/A
11:55 pm 23:55 Mostly Cloudy 52 11 27 -2.6 39 39 W 9 15 30.26 1025 10 16 N/A

Powered by AerisWeather